Location: �clusier
(49.9361°N, 2.7869°E)
Time: 23:22:07
(UTC+00:00)

Cosmos 2219 Rocket - Visible Passes

Search period start: 15 October 2021 00:00
Search period end: 25 October 2021 00:00
Orbit: 828 x 846 km, 71.0° (Epoch: 15 October)

Date Brightness Start Highest point End Pass type
(mag) Time Alt. Az. Time Alt. Az. Time Alt. Az.
15 Oct 4.7 04:02:54 10° N 04:05:45 14° NNE 04:08:36 10° ENE visible
16 Oct 4.8 03:46:33 10° N 03:49:14 13° NNE 03:51:56 10° NE visible
16 Oct 3.5 05:29:27 10° NNW 05:34:49 42° NE 05:40:09 10° ESE visible
17 Oct 4.8 03:30:12 10° N 03:32:43 13° NNE 03:35:14 10° NE visible
17 Oct 3.5 05:13:04 10° NNW 05:18:22 39° NE 05:23:39 10° ESE visible
18 Oct 4.8 03:13:52 10° N 03:16:12 12° NNE 03:18:33 10° NE visible
18 Oct 3.6 04:56:39 10° NNW 05:01:54 37° NE 05:07:08 10° ESE visible
19 Oct 4.9 02:57:33 10° N 02:59:42 12° NNE 03:01:50 10° NE visible
19 Oct 3.7 04:40:16 10° NNW 04:45:27 35° NE 04:50:37 10° ESE visible
20 Oct 4.9 02:41:14 10° N 02:43:10 12° NNE 02:45:06 10° NE visible
20 Oct 3.8 04:23:53 10° NNW 04:28:59 34° NE 04:34:06 10° ESE visible
21 Oct 5.0 02:24:56 10° N 02:26:39 11° NNE 02:28:20 10° NE visible
21 Oct 3.8 04:07:29 10° NNW 04:12:32 32° NE 04:17:34 10° ESE visible
22 Oct 5.0 02:08:40 10° N 02:10:07 11° NNE 02:11:34 10° NE visible
22 Oct 3.9 03:51:06 10° NNW 03:56:04 30° NE 04:01:01 10° ESE visible
22 Oct 2.3 05:34:50 10° NW 05:40:25 61° WSW 05:45:58 10° SSE visible
23 Oct 5.0 01:52:26 10° N 01:53:35 11° NNE 01:54:44 10° NNE visible
23 Oct 4.0 03:34:42 10° NNW 03:39:36 29° NE 03:44:29 10° ESE visible
23 Oct 2.2 05:18:24 10° NNW 05:24:00 65° WSW 05:29:36 10° SSE visible
24 Oct 5.1 01:36:18 10° N 01:37:04 10° NNE 01:37:49 10° NNE visible
24 Oct 4.0 03:18:19 10° NNW 03:23:07 28° NE 03:27:56 10° ESE visible
24 Oct 2.1 05:01:57 10° NNW 05:07:36 70° WSW 05:13:13 10° SSE visible
24 Oct 4.1 18:15:14 10° SE 18:15:44 12° SE 18:15:44 12° SE visible
24 Oct 4.3 19:56:38 10° SSW 19:57:34 15° SSW 19:57:34 15° SSW visible
